Time,TemperatureF,DewpointF,PressureIn,WindDirection,WindDirectionDegrees,WindSpeedMPH,WindSpeedGustMPH,Humidity,HourlyPrecipIn,Conditions,Clouds,dailyrainin,SoftwareType,DateUTC
2013-06-08 00:00:00,55.3,49.8,29.91,NNE,23,0.0,0.0,82,0.00,,,0.00,WUHU216HW,2013-06-08 05:00:00,
2013-06-08 00:05:00,55.3,49.8,29.91,NNE,23,0.0,0.0,82,0.00,,,0.00,WUHU216HW,2013-06-08 05:05:00,
2013-06-08 00:30:00,54.5,49.1,29.90,East,90,0.0,0.0,82,0.00,,,0.00,WUHU216HW,2013-06-08 05:30:00,
2013-06-08 00:31:00,54.5,49.1,29.90,East,90,0.0,0.0,82,0.00,,,0.00,WUHU216HW,2013-06-08 05:31:00,
2013-06-08 00:35:00,54.5,49.1,29.90,East,90,0.0,0.0,82,0.00,,,0.00,WUHU216HW,2013-06-08 05:35:00,
2013-06-08 00:36:00,54.5,49.1,29.90,East,90,0.0,0.0,82,0.00,,,0.00,WUHU216HW,2013-06-08 05:36:00,
2013-06-08 00:40:00,54.5,49.1,29.90,East,90,0.0,0.0,82,0.00,,,0.00,WUHU216HW,2013-06-08 05:40:00,
2013-06-08 01:00:00,54.7,49.6,29.91,NNE,23,0.9,0.9,83,0.00,,,0.00,WUHU216HW,2013-06-08 06:00:00,
2013-06-08 01:05:00,54.7,49.6,29.91,NNE,23,0.4,0.9,83,0.00,,,0.00,WUHU216HW,2013-06-08 06:05:00,
2013-06-08 01:30:00,55.1,50.0,29.90,NE,45,0.4,0.4,83,0.00,,,0.00,WUHU216HW,2013-06-08 06:30:00,
2013-06-08 01:35:00,55.1,50.0,29.90,NE,45,0.4,0.4,83,0.00,,,0.00,WUHU216HW,2013-06-08 06:35:00,
2013-06-08 01:36:00,55.1,50.0,29.90,NE,45,0.4,0.4,83,0.00,,,0.00,WUHU216HW,2013-06-08 06:36:00,
2013-06-08 01:40:00,55.1,50.0,29.90,NE,45,0.4,0.4,83,0.00,,,0.00,WUHU216HW,2013-06-08 06:40:00,
2013-06-08 02:00:00,55.4,50.3,29.90,NNE,23,0.0,0.0,83,0.00,,,0.00,WUHU216HW,2013-06-08 07:00:00,
2013-06-08 02:05:00,55.4,50.3,29.90,NNE,23,0.0,0.0,83,0.00,,,0.00,WUHU216HW,2013-06-08 07:05:00,
2013-06-08 02:10:00,55.4,50.3,29.90,NNE,23,0.0,0.0,83,0.00,,,0.00,WUHU216HW,2013-06-08 07:10:00,
2013-06-08 02:30:00,55.1,50.0,29.89,NE,45,0.4,0.4,83,0.00,,,0.00,WUHU216HW,2013-06-08 07:30:00,
2013-06-08 02:35:00,55.1,50.0,29.89,NE,45,0.7,0.7,83,0.00,,,0.00,WUHU216HW,2013-06-08 07:35:00,
2013-06-08 02:40:00,55.1,50.0,29.89,NE,45,0.7,0.7,83,0.00,,,0.00,WUHU216HW,2013-06-08 07:40:00,
2013-06-08 03:00:00,55.4,50.0,29.89,ESE,113,0.0,0.0,82,0.00,,,0.00,WUHU216HW,2013-06-08 08:00:00,
2013-06-08 03:05:00,55.4,50.0,29.89,ESE,113,0.0,0.0,82,0.00,,,0.00,WUHU216HW,2013-06-08 08:05:00,
2013-06-08 03:06:00,55.4,50.0,29.89,ESE,113,0.0,0.0,82,0.00,,,0.00,WUHU216HW,2013-06-08 08:06:00,
2013-06-08 03:10:00,55.4,50.0,29.89,ESE,113,0.0,0.0,82,0.00,,,0.00,WUHU216HW,2013-06-08 08:10:00,
2013-06-08 03:30:00,55.1,49.7,29.89,SE,135,1.1,1.1,82,0.00,,,0.00,WUHU216HW,2013-06-08 08:30:00,
2013-06-08 03:35:00,55.1,49.7,29.89,ESE,113,1.1,1.1,82,0.00,,,0.00,WUHU216HW,2013-06-08 08:35:00,
2013-06-08 03:36:00,55.1,49.7,29.89,ESE,113,1.1,1.1,82,0.00,,,0.00,WUHU216HW,2013-06-08 08:36:00,
2013-06-08 04:00:00,55.1,49.7,29.89,East,90,0.4,0.4,82,0.00,,,0.00,WUHU216HW,2013-06-08 09:00:00,
2013-06-08 04:01:00,55.1,49.7,29.89,East,90,0.4,0.4,82,0.00,,,0.00,WUHU216HW,2013-06-08 09:01:00,
2013-06-08 04:05:00,55.1,49.7,29.89,East,90,0.4,0.4,82,0.00,,,0.00,WUHU216HW,2013-06-08 09:05:00,
2013-06-08 04:07:00,55.1,49.7,29.89,East,90,0.4,0.4,82,0.00,,,0.00,WUHU216HW,2013-06-08 09:07:00,
2013-06-08 04:30:00,54.9,49.5,29.89,ESE,113,0.4,0.4,82,0.00,,,0.00,WUHU216HW,2013-06-08 09:30:00,
2013-06-08 04:35:00,54.9,49.5,29.89,ESE,113,0.4,0.4,82,0.00,,,0.00,WUHU216HW,2013-06-08 09:35:00,
2013-06-08 04:36:00,54.9,49.5,29.89,ESE,113,0.4,0.4,82,0.00,,,0.00,WUHU216HW,2013-06-08 09:36:00,
2013-06-08 04:40:00,54.9,49.5,29.89,ESE,113,0.4,0.4,82,0.00,,,0.00,WUHU216HW,2013-06-08 09:40:00,
2013-06-08 05:00:00,54.5,49.1,29.89,ENE,68,0.9,0.9,82,0.00,,,0.00,WUHU216HW,2013-06-08 10:00:00,
2013-06-08 05:05:00,54.5,49.1,29.89,ENE,68,1.1,1.1,82,0.00,,,0.00,WUHU216HW,2013-06-08 10:05:00,
2013-06-08 05:10:00,54.5,49.1,29.89,ENE,68,1.1,1.1,82,0.00,,,0.00,WUHU216HW,2013-06-08 10:10:00,
2013-06-08 05:30:00,54.9,49.5,29.89,North,0,1.1,1.1,82,0.00,,,0.00,WUHU216HW,2013-06-08 10:30:00,
2013-06-08 05:35:00,54.9,49.5,29.89,North,0,1.1,1.1,82,0.00,,,0.00,WUHU216HW,2013-06-08 10:35:00,
2013-06-08 05:36:00,54.9,49.5,29.89,North,0,1.1,1.1,82,0.00,,,0.00,WUHU216HW,2013-06-08 10:36:00,
2013-06-08 06:00:00,55.4,50.0,29.89,ENE,68,0.0,0.0,82,0.00,,,0.00,WUHU216HW,2013-06-08 11:00:00,
2013-06-08 06:05:00,55.4,50.0,29.89,East,90,0.0,0.0,82,0.00,,,0.00,WUHU216HW,2013-06-08 11:05:00,
2013-06-08 06:10:00,55.4,50.0,29.89,East,90,0.0,0.0,82,0.00,,,0.00,WUHU216HW,2013-06-08 11:10:00,
2013-06-08 06:30:00,56.5,51.0,29.89,SSE,158,1.1,1.1,82,0.00,,,0.00,WUHU216HW,2013-06-08 11:30:00,
2013-06-08 06:31:00,56.7,51.2,29.89,SE,135,1.3,1.3,82,0.00,,,0.00,WUHU216HW,2013-06-08 11:31:00,
2013-06-08 06:35:00,56.7,51.2,29.89,SE,135,1.3,1.3,82,0.00,,,0.00,WUHU216HW,2013-06-08 11:35:00,
2013-06-08 06:36:00,56.7,51.2,29.89,SE,135,1.3,1.3,82,0.00,,,0.00,WUHU216HW,2013-06-08 11:36:00,
2013-06-08 06:37:00,56.7,51.2,29.89,SE,135,1.3,1.3,82,0.00,,,0.00,WUHU216HW,2013-06-08 11:37:00,
2013-06-08 07:00:00,60.5,54.0,29.89,ESE,113,0.4,0.4,79,0.00,,,0.00,WUHU216HW,2013-06-08 12:00:00,
2013-06-08 07:05:00,60.7,54.2,29.89,ESE,113,0.2,0.4,79,0.00,,,0.00,WUHU216HW,2013-06-08 12:05:00,
2013-06-08 07:10:00,60.7,54.2,29.89,ESE,113,0.2,0.2,79,0.00,,,0.00,WUHU216HW,2013-06-08 12:10:00,
2013-06-08 07:30:00,63.2,54.7,29.90,East,90,1.8,1.8,74,0.00,,,0.00,WUHU216HW,2013-06-08 12:30:00,
2013-06-08 07:35:00,63.2,55.1,29.90,ENE,68,1.3,1.8,75,0.00,,,0.00,WUHU216HW,2013-06-08 12:35:00,
2013-06-08 07:36:00,63.2,55.1,29.90,ENE,68,1.3,1.8,75,0.00,,,0.00,WUHU216HW,2013-06-08 12:36:00,
2013-06-08 07:40:00,63.2,55.1,29.90,ENE,68,1.3,1.3,75,0.00,,,0.00,WUHU216HW,2013-06-08 12:40:00,
2013-06-08 08:00:00,66.4,56.3,29.90,ENE,68,2.5,2.5,70,0.00,,,0.00,WUHU216HW,2013-06-08 13:00:00,
2013-06-08 08:05:00,66.4,55.9,29.90,ENE,68,1.6,2.5,69,0.00,,,0.00,WUHU216HW,2013-06-08 13:05:00,
2013-06-08 08:10:00,66.4,55.9,29.90,ENE,68,1.6,1.6,69,0.00,,,0.00,WUHU216HW,2013-06-08 13:10:00,
2013-06-08 08:30:00,68.0,54.9,29.89,ENE,68,4.0,4.0,63,0.00,,,0.00,WUHU216HW,2013-06-08 13:30:00,
2013-06-08 08:31:00,67.9,55.2,29.89,East,85,2.5,4.0,64,0.00,,,0.00,WUHU216HW,2013-06-08 13:31:00,
2013-06-08 08:35:00,67.9,55.2,29.89,ENE,68,1.8,4.0,64,0.00,,,0.00,WUHU216HW,2013-06-08 13:35:00,
2013-06-08 08:36:00,67.9,55.2,29.89,ENE,68,1.8,4.0,64,0.00,,,0.00,WUHU216HW,2013-06-08 13:36:00,
2013-06-08 08:40:00,67.9,55.2,29.89,ENE,68,1.8,1.8,64,0.00,,,0.00,WUHU216HW,2013-06-08 13:40:00,
2013-06-08 09:00:00,70.0,56.4,29.90,ENE,68,1.6,1.6,62,0.00,,,0.00,WUHU216HW,2013-06-08 14:00:00,
2013-06-08 09:05:00,70.2,55.8,29.90,ENE,68,1.1,1.6,60,0.00,,,0.00,WUHU216HW,2013-06-08 14:05:00,
2013-06-08 09:06:00,70.2,55.8,29.90,ENE,68,1.1,1.6,60,0.00,,,0.00,WUHU216HW,2013-06-08 14:06:00,
2013-06-08 09:10:00,70.2,55.8,29.90,ENE,68,1.1,1.1,60,0.00,,,0.00,WUHU216HW,2013-06-08 14:10:00,
2013-06-08 09:30:00,70.2,54.7,29.90,ESE,113,2.5,2.5,58,0.00,,,0.00,WUHU216HW,2013-06-08 14:30:00,
2013-06-08 09:32:00,70.2,54.7,29.90,SSE,158,2.5,2.5,58,0.00,,,0.00,WUHU216HW,2013-06-08 14:32:00,
2013-06-08 09:35:00,70.2,54.7,29.90,SSE,158,2.5,2.5,58,0.00,,,0.00,WUHU216HW,2013-06-08 14:35:00,
2013-06-08 09:37:00,70.2,54.7,29.90,SSE,158,2.5,2.5,58,0.00,,,0.00,WUHU216HW,2013-06-08 14:37:00,
2013-06-08 10:00:00,71.8,55.2,29.90,ENE,68,3.4,3.4,56,0.00,,,0.00,WUHU216HW,2013-06-08 15:00:00,
2013-06-08 10:05:00,71.6,55.5,29.90,ENE,68,3.4,3.4,57,0.00,,,0.00,WUHU216HW,2013-06-08 15:05:00,
2013-06-08 10:10:00,71.6,55.5,29.90,ENE,68,3.4,3.4,57,0.00,,,0.00,WUHU216HW,2013-06-08 15:10:00,
2013-06-08 10:30:00,68.8,54.8,29.90,ENE,68,3.1,3.1,61,0.00,,,0.00,WUHU216HW,2013-06-08 15:30:00,
2013-06-08 10:31:00,68.9,55.0,29.90,East,90,3.1,3.1,61,0.00,,,0.00,WUHU216HW,2013-06-08 15:31:00,
2013-06-08 10:35:00,68.9,55.0,29.90,East,90,3.1,3.1,61,0.00,,,0.00,WUHU216HW,2013-06-08 15:35:00,
2013-06-08 10:36:00,68.9,55.0,29.90,East,90,3.1,3.1,61,0.00,,,0.00,WUHU216HW,2013-06-08 15:36:00,
2013-06-08 10:40:00,68.9,55.0,29.90,East,90,3.1,3.1,61,0.00,,,0.00,WUHU216HW,2013-06-08 15:40:00,
2013-06-08 11:00:00,70.4,55.5,29.90,SE,135,4.0,4.0,59,0.00,,,0.00,WUHU216HW,2013-06-08 16:00:00,
2013-06-08 11:05:00,70.6,55.6,29.90,SSW,203,4.7,4.7,59,0.00,,,0.00,WUHU216HW,2013-06-08 16:05:00,
2013-06-08 11:10:00,70.6,55.6,29.90,SSW,203,4.7,4.7,59,0.00,,,0.00,WUHU216HW,2013-06-08 16:10:00,
2013-06-08 11:30:00,71.3,54.7,29.89,SE,135,5.1,5.1,56,0.00,,,0.00,WUHU216HW,2013-06-08 16:30:00,
2013-06-08 11:35:00,71.3,54.7,29.89,ESE,113,6.3,9.2,56,0.00,,,0.00,WUHU216HW,2013-06-08 16:35:00,
2013-06-08 11:36:00,71.3,54.7,29.89,ESE,113,6.3,9.2,56,0.00,,,0.00,WUHU216HW,2013-06-08 16:36:00,
2013-06-08 11:40:00,71.3,54.7,29.89,ESE,113,6.3,6.3,56,0.00,,,0.00,WUHU216HW,2013-06-08 16:40:00,
2013-06-08 12:00:00,70.2,53.7,29.89,SE,135,5.8,5.8,56,0.00,,,0.00,WUHU216HW,2013-06-08 17:00:00,
2013-06-08 12:05:00,70.4,53.4,29.89,SE,135,7.4,7.4,55,0.00,,,0.00,WUHU216HW,2013-06-08 17:05:00,
2013-06-08 12:10:00,70.4,53.4,29.89,SE,135,7.4,7.4,55,0.00,,,0.00,WUHU216HW,2013-06-08 17:10:00,
2013-06-08 12:30:00,70.0,52.6,29.88,SE,135,8.7,8.7,54,0.00,,,0.00,WUHU216HW,2013-06-08 17:30:00,
2013-06-08 12:35:00,70.0,52.1,29.88,SE,135,8.7,8.7,53,0.00,,,0.00,WUHU216HW,2013-06-08 17:35:00,
2013-06-08 12:36:00,70.0,52.1,29.88,SE,135,8.7,8.7,53,0.00,,,0.00,WUHU216HW,2013-06-08 17:36:00,
2013-06-08 13:00:00,71.6,54.5,29.89,SE,135,4.9,4.9,55,0.00,,,0.00,WUHU216HW,2013-06-08 18:00:00,
2013-06-08 13:05:00,71.8,54.7,29.89,SE,135,4.9,4.9,55,0.00,,,0.00,WUHU216HW,2013-06-08 18:05:00,
2013-06-08 13:10:00,71.8,54.7,29.89,SE,135,4.9,4.9,55,0.00,,,0.00,WUHU216HW,2013-06-08 18:10:00,
2013-06-08 13:30:00,72.7,53.5,29.88,SSE,158,7.8,7.8,51,0.00,,,0.00,WUHU216HW,2013-06-08 18:30:00,
2013-06-08 13:35:00,72.7,53.5,29.88,South,180,11.0,11.0,51,0.00,,,0.00,WUHU216HW,2013-06-08 18:35:00,
2013-06-08 13:36:00,72.7,53.5,29.88,South,180,11.0,11.0,51,0.00,,,0.00,WUHU216HW,2013-06-08 18:36:00,
2013-06-08 14:00:00,71.6,53.6,29.88,SE,135,6.7,6.7,53,0.00,,,0.00,WUHU216HW,2013-06-08 19:00:00,
2013-06-08 14:05:00,71.6,53.6,29.88,SE,135,6.7,6.7,53,0.00,,,0.00,WUHU216HW,2013-06-08 19:05:00,
2013-06-08 14:06:00,71.6,53.6,29.88,SE,135,6.7,6.7,53,0.00,,,0.00,WUHU216HW,2013-06-08 19:06:00,
2013-06-08 14:30:00,71.8,53.7,29.88,SSE,158,5.6,5.6,53,0.00,,,0.00,WUHU216HW,2013-06-08 19:30:00,
2013-06-08 14:35:00,71.8,54.2,29.88,SSE,158,5.6,5.6,54,0.00,,,0.00,WUHU216HW,2013-06-08 19:35:00,
2013-06-08 14:36:00,71.8,54.2,29.88,SSE,158,5.6,5.6,54,0.00,,,0.00,WUHU216HW,2013-06-08 19:36:00,
2013-06-08 15:00:00,71.8,54.2,29.88,East,90,4.7,4.7,54,0.00,,,0.00,WUHU216HW,2013-06-08 20:00:00,
2013-06-08 15:05:00,72.0,54.9,29.88,East,90,2.7,4.7,55,0.00,,,0.00,WUHU216HW,2013-06-08 20:05:00,
2013-06-08 15:10:00,72.0,54.9,29.88,East,90,2.7,2.7,55,0.00,,,0.00,WUHU216HW,2013-06-08 20:10:00,
2013-06-08 15:30:00,71.3,54.2,29.88,SE,135,6.9,6.9,55,0.00,,,0.00,WUHU216HW,2013-06-08 20:30:00,
2013-06-08 15:35:00,71.3,54.2,29.88,SE,135,6.9,6.9,55,0.00,,,0.00,WUHU216HW,2013-06-08 20:35:00,
2013-06-08 15:40:00,71.3,54.2,29.88,SE,135,6.9,6.9,55,0.00,,,0.00,WUHU216HW,2013-06-08 20:40:00,
2013-06-08 16:00:00,71.3,54.2,29.88,SSE,158,5.6,5.6,55,0.00,,,0.00,WUHU216HW,2013-06-08 21:00:00,
2013-06-08 16:05:00,71.3,54.2,29.88,SE,135,4.7,5.6,55,0.00,,,0.00,WUHU216HW,2013-06-08 21:05:00,
2013-06-08 16:30:00,72.9,53.2,29.88,ESE,113,3.4,3.4,50,0.00,,,0.00,WUHU216HW,2013-06-08 21:30:00,
2013-06-08 16:35:00,72.9,53.2,29.88,SE,135,4.3,4.3,50,0.00,,,0.00,WUHU216HW,2013-06-08 21:35:00,
2013-06-08 16:36:00,72.9,53.2,29.88,SE,135,4.3,4.3,50,0.00,,,0.00,WUHU216HW,2013-06-08 21:36:00,
2013-06-08 17:00:00,72.4,53.6,29.88,ESE,113,4.5,4.5,52,0.00,,,0.00,WUHU216HW,2013-06-08 22:00:00,
2013-06-08 17:05:00,72.2,53.6,29.88,SE,135,5.4,5.4,52,0.00,,,0.00,WUHU216HW,2013-06-08 22:05:00,
2013-06-08 17:30:00,71.8,53.7,29.88,SE,135,8.1,8.1,53,0.00,,,0.00,WUHU216HW,2013-06-08 22:30:00,
2013-06-08 17:31:00,71.8,53.7,29.88,SE,141,7.3,8.1,53,0.00,,,0.00,WUHU216HW,2013-06-08 22:31:00,
2013-06-08 17:35:00,71.8,53.7,29.88,SSE,158,5.8,8.1,53,0.00,,,0.00,WUHU216HW,2013-06-08 22:35:00,
2013-06-08 17:36:00,71.8,53.7,29.88,SSE,158,5.8,8.1,53,0.00,,,0.00,WUHU216HW,2013-06-08 22:36:00,
2013-06-08 17:40:00,71.8,53.7,29.88,SSE,158,5.8,5.8,53,0.00,,,0.00,WUHU216HW,2013-06-08 22:40:00,
2013-06-08 18:00:00,71.3,54.2,29.88,SE,135,6.9,6.9,55,0.00,,,0.00,WUHU216HW,2013-06-08 23:00:00,
2013-06-08 18:05:00,71.3,54.2,29.88,ESE,113,4.9,6.9,55,0.00,,,0.00,WUHU216HW,2013-06-08 23:05:00,
2013-06-08 18:30:00,73.1,54.4,29.88,ESE,113,6.9,6.9,52,0.00,,,0.00,WUHU216HW,2013-06-08 23:30:00,
2013-06-08 18:35:00,73.1,54.8,29.88,ESE,113,6.9,6.9,53,0.00,,,0.00,WUHU216HW,2013-06-08 23:35:00,
2013-06-08 18:36:00,73.1,54.8,29.88,ESE,113,6.9,6.9,53,0.00,,,0.00,WUHU216HW,2013-06-08 23:36:00,
2013-06-08 18:40:00,73.1,54.8,29.88,ESE,113,6.9,6.9,53,0.00,,,0.00,WUHU216HW,2013-06-08 23:40:00,
2013-06-08 19:00:00,72.7,54.0,29.88,SE,135,9.8,9.8,52,0.00,,,0.00,WUHU216HW,2013-06-09 00:00:00,
2013-06-08 19:05:00,72.7,54.0,29.88,ESE,113,13.0,13.0,52,0.00,,,0.00,WUHU216HW,2013-06-09 00:05:00,
2013-06-08 19:10:00,72.7,54.0,29.88,ESE,113,13.0,13.0,52,0.00,,,0.00,WUHU216HW,2013-06-09 00:10:00,
2013-06-08 19:30:00,70.6,53.6,29.88,SE,135,4.7,4.7,55,0.00,,,0.00,WUHU216HW,2013-06-09 00:30:00,
2013-06-08 19:35:00,70.7,53.7,29.88,SSE,158,3.4,4.7,55,0.00,,,0.00,WUHU216HW,2013-06-09 00:35:00,
2013-06-08 20:00:00,70.9,53.9,29.88,SSE,158,3.4,3.4,55,0.00,,,0.00,WUHU216HW,2013-06-09 01:00:00,
2013-06-08 20:05:00,70.9,54.4,29.88,WSW,248,4.0,4.0,56,0.00,,,0.00,WUHU216HW,2013-06-09 01:05:00,
2013-06-08 20:30:00,69.1,54.2,29.88,ESE,113,4.3,4.3,59,0.00,,,0.00,WUHU216HW,2013-06-09 01:30:00,
2013-06-08 20:31:00,69.1,54.2,29.88,ESE,113,3.6,4.3,59,0.00,,,0.00,WUHU216HW,2013-06-09 01:31:00,
2013-06-08 20:35:00,69.1,54.2,29.88,ESE,113,2.2,4.3,59,0.00,,,0.00,WUHU216HW,2013-06-09 01:35:00,
2013-06-08 20:37:00,69.1,54.2,29.88,ESE,113,2.2,4.3,59,0.00,,,0.00,WUHU216HW,2013-06-09 01:37:00,
2013-06-08 21:00:00,67.3,54.3,29.88,East,90,1.1,1.1,63,0.00,,,0.00,WUHU216HW,2013-06-09 02:00:00,
2013-06-08 21:05:00,67.1,54.1,29.88,ESE,113,2.9,2.9,63,0.00,,,0.00,WUHU216HW,2013-06-09 02:05:00,
2013-06-08 21:06:00,67.1,54.1,29.88,ESE,113,2.9,2.9,63,0.00,,,0.00,WUHU216HW,2013-06-09 02:06:00,
2013-06-08 21:10:00,67.1,54.1,29.88,ESE,113,2.9,2.9,63,0.00,,,0.00,WUHU216HW,2013-06-09 02:10:00,
2013-06-08 21:30:00,66.4,55.1,29.88,East,90,2.9,2.9,67,0.00,,,0.00,WUHU216HW,2013-06-09 02:30:00,
2013-06-08 21:35:00,66.4,55.1,29.88,East,90,2.9,2.9,67,0.00,,,0.00,WUHU216HW,2013-06-09 02:35:00,
2013-06-08 21:36:00,66.4,55.1,29.88,East,90,2.9,2.9,67,0.00,,,0.00,WUHU216HW,2013-06-09 02:36:00,
2013-06-08 21:40:00,66.4,55.1,29.88,East,90,2.9,2.9,67,0.00,,,0.00,WUHU216HW,2013-06-09 02:40:00,
2013-06-08 22:00:00,65.3,55.4,29.89,SE,135,2.7,2.7,70,0.00,,,0.00,WUHU216HW,2013-06-09 03:00:00,
2013-06-08 22:05:00,65.3,55.4,29.89,South,180,3.1,3.1,70,0.00,,,0.00,WUHU216HW,2013-06-09 03:05:00,
2013-06-08 22:10:00,65.3,55.4,29.89,South,180,3.1,3.1,70,0.00,,,0.00,WUHU216HW,2013-06-09 03:10:00,
2013-06-08 22:30:00,64.3,55.4,29.89,SSE,158,1.8,1.8,73,0.00,,,0.00,WUHU216HW,2013-06-09 03:30:00,
2013-06-08 22:35:00,64.3,55.4,29.89,SE,135,2.7,2.7,73,0.00,,,0.00,WUHU216HW,2013-06-09 03:35:00,
2013-06-08 22:36:00,64.3,55.4,29.89,SE,135,2.7,2.7,73,0.00,,,0.00,WUHU216HW,2013-06-09 03:36:00,
2013-06-08 22:40:00,64.3,55.4,29.89,SE,135,2.7,2.7,73,0.00,,,0.00,WUHU216HW,2013-06-09 03:40:00,
2013-06-08 23:00:00,63.7,55.3,29.89,ESE,113,3.1,3.1,74,0.00,,,0.00,WUHU216HW,2013-06-09 04:00:00,
2013-06-08 23:01:00,63.7,55.3,29.89,NNE,23,6.0,6.0,74,0.00,,,0.00,WUHU216HW,2013-06-09 04:01:00,
2013-06-08 23:06:00,63.7,55.3,29.89,NNE,23,6.0,6.0,74,0.00,,,0.00,WUHU216HW,2013-06-09 04:06:00,
2013-06-08 23:07:00,63.7,55.3,29.89,NNE,23,6.0,6.0,74,0.00,,,0.00,WUHU216HW,2013-06-09 04:07:00,
2013-06-08 23:30:00,63.4,54.9,29.89,SE,135,1.8,1.8,74,0.00,,,0.00,WUHU216HW,2013-06-09 04:30:00,
2013-06-08 23:31:00,63.4,54.9,29.89,ESE,113,4.0,5.4,74,0.00,,,0.00,WUHU216HW,2013-06-09 04:31:00,
2013-06-08 23:35:00,63.4,54.9,29.89,ESE,113,4.0,5.4,74,0.00,,,0.00,WUHU216HW,2013-06-09 04:35:00,
2013-06-08 23:36:00,63.4,54.9,29.89,ESE,113,4.0,5.4,74,0.00,,,0.00,WUHU216HW,2013-06-09 04:36:00,
2013-06-08 23:40:00,63.4,54.9,29.89,ESE,113,4.0,4.0,74,0.00,,,0.00,WUHU216HW,2013-06-09 04:40:00,